This is the latest recevied weather packets stored in our database for station/object KO6MEZ-13. If no packets are shown the sender has not sent any weather packets the latest 1 day(s).
| Time | Temp. | Humidity | Pressure | Rain* | Wind** | Luminosity | Snow |
|---|---|---|---|---|---|---|---|
| 1778036826 | 13.33° C | 87% | 1014.3 hPa | 0 mm | - | 2 W/m² | - |
| 1778036226 | 13.33° C | 86% | 1014.3 hPa | 0 mm | - | 4 W/m² | - |
| 1778035926 | 13.33° C | 86% | 1014.3 hPa | 0 mm | - | 6 W/m² | - |
| 1778035752 | 13.89° C | 85% | 1014.4 hPa | 0 mm | - | 7 W/m² | - |
| 1778035325 | 13.89° C | 84% | 1014.3 hPa | 0 mm | - | 9 W/m² | - |
| 1778035025 | 13.89° C | 84% | 1014.2 hPa | 0 mm | - | 13 W/m² | - |
| 1778034726 | 13.89° C | 84% | 1014.2 hPa | 0 mm | - | 16 W/m² | - |
| 1778034425 | 13.89° C | 84% | 1014.1 hPa | 0 mm | - | 19 W/m² | - |
| 1778034125 | 13.89° C | 84% | 1014.1 hPa | 0 mm | - | 20 W/m² | - |
| 1778033826 | 13.89° C | 84% | 1014.2 hPa | 0 mm | - | 21 W/m² | - |
| 1778033526 | 13.89° C | 83% | 1014.2 hPa | 0 mm | - | 24 W/m² | - |
| 1778033226 | 13.89° C | 83% | 1014.3 hPa | 0 mm | - | 24 W/m² | - |
| 1778032752 | 14.44° C | 82% | 1014.2 hPa | 0 mm | - | 35 W/m² | - |
| 1778032453 | 14.44° C | 82% | 1014.1 hPa | 0 mm | - | 29 W/m² | - |
| 1778032025 | 14.44° C | 81% | 1014.1 hPa | 0 mm | - | 44 W/m² | - |
| 1778031853 | 14.44° C | 80% | 1014.1 hPa | 0 mm | - | 48 W/m² | - |
| 1778031425 | 14.44° C | 81% | 1014.1 hPa | 0 mm | - | 50 W/m² | - |
| 1778031125 | 14.44° C | 80% | 1014.1 hPa | 0 mm | - | 53 W/m² | - |
| 1778030826 | 14.44° C | 81% | 1013.9 hPa | 0 mm | - | 63 W/m² | - |
| 1778029626 | 14.44° C | 80% | 1013.9 hPa | 0 mm | - | 95 W/m² | - |
| 1778028725 | 14.44° C | 81% | 1013.9 hPa | 0 mm | - | 117 W/m² | - |
| 1778028425 | 14.44° C | 81% | 1013.9 hPa | 0 mm | - | 112 W/m² | - |
| 1778028125 | 14.44° C | 80% | 1013.9 hPa | 0 mm | - | 99 W/m² | - |
| 1778027826 | 14.44° C | 81% | 1013.9 hPa | 0 mm | - | 81 W/m² | - |
| 1778027225 | 14.44° C | 79% | 1013.9 hPa | 0 mm | - | 71 W/m² | - |
* Rain latest hour (hover to see other rain measurements)
** Current wind speed in m/s (hover to see current wind gust speed)